Effective Sunday, March 17, 2024, the National Weather Service National Data Buoy Center will discontinue its Dial-A-Buoy Interactive Voice Response system. For more information, see Service Change Notice 24-06 (PDF).

Station 46066 (LLNR 984.1) - SOUTH KODIAK - 310NM SSW of Kodiak, AK Image indicating link to RSS feed of recent meteorological observations for station 46066


Conditions at 46066 as of
(3:20 pm HAST on 02/23/2024)
0120 GMT on 02/24/2024:
     

Click on the graph icon in the table below to see a time series plot of the last five days of that observation.

5-day plot - Wind Direction Wind Direction (WDIR):WSW ( 250 deg true )
5-day plot - Wind Speed Wind Speed (WSPD): 21.4 kts
5-day plot - Wind Gust Wind Gust (GST): 27.2 kts
5-day plot - Wave Height Wave Height (WVHT): 15.1 ft
5-day plot - Dominant Wave Period Dominant Wave Period (DPD): 12 sec
5-day plot - Average Wave Period Average Period (APD): 8.1 sec
5-day plot - Mean Wave Direction Mean Wave Direction (MWD): W ( 261 deg true )
5-day plot - Atmospheric Pressure Atmospheric Pressure (PRES):30.03 in
5-day plot - Air Temperature Air Temperature (ATMP): 41.4 °F
5-day plot - Water Temperature Water Temperature (WTMP): 40.1 °F
5-day plot - Dew Point Dew Point (DEWP): 39.9 °F
5-day plot - Wind Chill Wind Chill (CHILL): 31.3 °F
5-day plot - Wind Speed at 10 Meters Wind Speed at 10 meters (WSPD10M): 23.3 kts
5-day plot - Wind Speed at 20 Meters Wind Speed at 20 meters (WSPD20M): 23.3 kts
5-day plot -  Wind Speed, Wind Gust and Atmospheric Pressure Combined plot of Wind Speed, Gust, and Air Pressure
Supplemental Measurements
Highest 1-minute Wind Speed
Time (HAST)5-day plot - 1-Minute Wind Speed WSPD 5-day plot - 1-Minute Wind Direction WDIR
3:19 pm 23.3 kts-
Previous observations
TIME
(HAST)
5-day plot - Wind Direction
WDIR
 
5-day plot - Wind Speed
WSPD
kts
5-day plot - Wind Gust
GST
kts
5-day plot - Wave Height
WVHT
ft
5-day plot - Dominant Wave Period
DPD
sec
5-day plot - Average Wave Period
APD
sec
5-day plot - Mean Wave Direction
MWD
 
5-day plot - Atmospheric Pressure
PRES
in
5-day plot - Pressure Tendency
PTDY
in
5-day plot - Air Temperature
ATMP
°F
5-day plot - Water Temperature
WTMP
°F
5-day plot - Dew Point
DEWP
°F
5-day plot - Salinity
SAL
psu
5-day plot - Visibility
VIS
nmi
5-day plot - Tide (above MLLW)
TIDE
ft
2024-02-23 03:10 pmWSW 21.4 29.1----30.03- 41.5 40.1 40.1---
2024-02-23 03:00 pmWSW 23.3 31.1----30.03+0.04 41.5 40.1 40.1---
2024-02-23 02:50 pmWSW 21.4 27.2 15.4 118.0WSW30.03- 41.5 40.1 40.1---
2024-02-23 02:40 pmWSW 23.3 29.1----30.02- 41.5 40.1 40.3---
2024-02-23 02:30 pmWSW 21.4 29.1----30.02- 41.5 40.1 40.3---
2024-02-23 02:20 pmWSW 23.3 29.1 14.8 147.7 W30.01- 41.5 40.1 40.3---
2024-02-23 02:10 pmWSW 23.3 29.1 14.8-7.7 W30.01- 41.5 40.1 40.3---
2024-02-23 02:00 pmWSW 23.3 29.1----30.01+0.03 41.7 40.1 40.5---
2024-02-23 01:50 pmWSW 25.3 31.1 16.4 118.1 W30.01- 41.7 40.1 40.5---
2024-02-23 01:40 pmWSW 23.3 29.1----30.01- 41.7 40.3 40.6---
2024-02-23 01:30 pmWSW 23.3 29.1----30.00- 41.7 40.3 40.6---
2024-02-23 01:20 pmWSW 23.3 29.1 14.8 158.0 W30.00- 41.7 40.3 40.6---
2024-02-23 01:10 pmWSW 23.3 29.1 14.8-8.0 W30.00- 41.7 40.3 40.6---
2024-02-23 01:00 pmWSW 23.3 29.1----30.00+0.03 41.7 40.3 40.6---
2024-02-23 12:50 pmWSW 23.3 31.1 15.1 137.9WSW30.00- 41.7 40.3 40.6---
2024-02-23 12:40 pmWSW 23.3 29.1 15.1-7.9WSW30.00- 41.7 40.3 40.6---
2024-02-23 12:30 pmWSW 23.3 29.1----30.00- 41.9 40.3 40.8---
2024-02-23 12:20 pmWSW 23.3 29.1 15.4 108.0WSW30.00- 41.9 40.3 40.6---
2024-02-23 12:10 pmWSW 23.3 31.1 15.4-8.0WSW30.00- 41.9 40.3 40.6---
2024-02-23 12:00 pmWSW 23.3 29.1----29.99+0.04 41.9 40.5 40.8---
2024-02-23 11:50 amWSW 23.3 29.1 15.7 107.9WSW29.99- 41.9 40.5 40.8---
2024-02-23 11:40 amWSW 23.3 29.1----30.00- 42.1 40.5 40.8---
2024-02-23 11:30 amWSW 23.3 31.1----29.99- 42.1 40.5 40.8---
2024-02-23 11:20 amWSW 23.3 31.1 16.4 118.2WSW29.99- 42.1 40.5 40.8---
2024-02-23 11:10 amWSW 23.3 29.1 16.4-8.2WSW29.99- 42.1 40.5 40.8---
2024-02-23 11:00 am SW 23.3 31.1----29.99+0.04 42.1 40.5 40.8---
2024-02-23 10:50 am SW 23.3 31.1 16.4 148.2 W29.98- 42.1 40.5 40.8---
2024-02-23 10:40 am SW 23.3 31.1----29.98- 42.1 40.5 40.6---
2024-02-23 10:30 am SW 23.3 31.1----29.98- 42.3 40.5 40.8---
2024-02-23 10:20 am SW 23.3 29.1 16.1 158.4 W29.98- 42.3 40.5 40.8---
2024-02-23 10:10 am SW 23.3 29.1 16.1-8.4 W29.98- 42.3 40.5 40.8---
2024-02-23 10:00 am SW 23.3 29.1----29.97+0.04 42.3 40.5 40.8---
2024-02-23 09:50 am SW 23.3 31.1 15.7 118.5 W29.97- 42.3 40.5 40.8---
2024-02-23 09:40 am SW 23.3 31.1 15.7-8.5 W29.97- 42.3 40.5 40.8---
2024-02-23 09:30 am SW 23.3 29.1----29.97- 42.3 40.5 41.0---
2024-02-23 09:20 am SW 23.3 31.1 16.1 168.5 W29.97- 42.1 40.5 40.8---
2024-02-23 09:10 am SW 23.3 31.1 16.1-8.5 W29.96- 42.1 40.5 40.8---
2024-02-23 09:00 am SW 23.3 29.1----29.96+0.03 42.1 40.5 40.8---
2024-02-23 08:50 am SW 23.3 29.1 15.7 178.2 W29.96- 42.1 40.5 40.8---
2024-02-23 08:40 am SW 23.3 31.1 15.7-8.2 W29.96- 42.1 40.5 40.8---
2024-02-23 08:30 am SW 23.3 29.1----29.95- 42.1 40.5 40.8---
2024-02-23 08:20 am SW 23.3 29.1 15.7 178.7 W29.95- 42.1 40.5 40.8---
2024-02-23 08:10 am SW 23.3 29.1----29.95- 42.1 40.5 40.8---
2024-02-23 08:00 am SW 23.3 29.1----29.95+0.01 42.3 40.5 41.0---
2024-02-23 07:50 am SW 23.3 29.1 14.4 178.2 W29.94- 42.3 40.5 41.0---
2024-02-23 07:40 am SW 23.3 29.1----29.94- 42.3 40.5 41.0---
2024-02-23 07:30 am SW 23.3 29.1----29.94- 42.1 40.5 40.8---
2024-02-23 07:20 am SW 23.3 29.1 14.4 158.3 W29.94- 42.3 40.5 41.0---
2024-02-23 07:10 am SW 23.3 31.1 14.4-8.3 W29.94- 42.3 40.5 40.8---
2024-02-23 07:00 am SW 23.3 29.1----29.94+0.00 42.3 40.5 40.8---
2024-02-23 06:50 am SW 23.3 29.1 14.1 177.9 W29.94- 42.3- 40.8---
2024-02-23 06:40 am SW 23.3 29.1 14.1-7.9 W29.94- 42.3 40.5 40.8---
2024-02-23 06:30 am SW 23.3 29.1----29.93- 42.3 40.5 40.8---
2024-02-23 06:20 am SW 23.3 27.2 15.7 198.8 W29.93- 42.3 40.5 40.8---
2024-02-23 06:10 am SW 23.3 29.1 15.7-8.8 W29.93- 42.4 40.5 41.0---
2024-02-23 06:00 am SW 23.3 29.1----29.93-0.03 42.4 40.5 40.8---
2024-02-23 05:50 am SW 23.3 29.1 14.8 198.6 W29.93- 42.4 40.5 41.0---
2024-02-23 05:40 am SW 23.3 29.1 14.8-8.6 W29.93- 42.4 40.5 40.8---
2024-02-23 05:30 am SW 23.3 29.1----29.93- 42.4 40.5 40.8---
2024-02-23 05:20 am SW 23.3 29.1 14.1 158.2 W29.93- 42.4 40.5 40.8---
2024-02-23 05:10 am SW 23.3 31.1 14.1-8.2 W29.94- 42.4 40.5 41.0---
2024-02-23 05:00 am SW 23.3 29.1----29.94-0.03 42.4 40.5 41.0---
2024-02-23 04:50 am SW 23.3 29.1 14.4 148.4 W29.94- 42.4 40.5 41.0---
2024-02-23 04:40 am SW 23.3 27.2----29.94- 42.4 40.5 41.0---
2024-02-23 04:30 am SW 21.4 29.1----29.94- 42.4 40.5 41.0---
2024-02-23 04:20 am SW 21.4 27.2 14.1 178.4 W29.94- 42.4 40.5 41.0---
2024-02-23 04:10 am SW 21.4 27.2 14.1-8.4 W29.94- 42.3 40.5 41.0---
2024-02-23 04:00 am SW 21.4 29.1----29.94-0.04 42.3 40.5 41.0---
2024-02-23 03:50 am SW 21.4 27.2 12.8 118.2 W29.95- 42.3 40.5 41.0---
2024-02-23 03:40 am SW 21.4 29.1 12.8-8.2 W29.95- 42.3 40.5 41.0---
2024-02-23 03:30 am SW 21.4 27.2----29.95- 42.3 40.5 41.0---
2024-02-23 03:20 am SW 21.4 27.2 13.1 168.5 W29.95- 42.1 40.5 40.8---
2024-02-23 03:10 am SW 19.4 25.3 13.1-8.5 W29.95- 42.1 40.5 40.8---
2024-02-23 03:00 am SW 19.4 25.3----29.95-0.07 42.1 40.5 40.8---
2024-02-23 02:50 am SW 19.4 27.2 13.5 118.6 W29.96- 42.1 40.5 40.8---
2024-02-23 02:40 am SW 19.4 25.3----29.96- 42.1 40.5 41.0---
2024-02-23 02:30 am SW 19.4 25.3----29.96- 42.1 40.5 41.0---
2024-02-23 02:20 am SW 19.4 23.3 13.8 118.9 W29.96- 42.1 40.5 41.0---
2024-02-23 02:10 am SW 17.5 25.3 13.8-8.9 W29.96- 42.1 40.5 41.0---
2024-02-23 02:00 am SW 17.5 23.3----29.96-0.08 41.9 40.5 40.8---
2024-02-23 01:50 am SW 17.5 21.4 13.5 129.0 W29.97- 41.9 40.5 41.0---
2024-02-23 01:40 am SW 15.5 21.4----29.97- 41.7 40.5 40.8---
2024-02-23 01:30 am SW 15.5 19.4----29.97- 41.7 40.5 40.8---
2024-02-23 01:20 am SW 13.6 17.5 13.8 139.0 W29.98- 41.5 40.5 40.6---
2024-02-23 01:10 am SW 13.6 17.5 13.8-9.0 W29.98- 41.4 40.5 40.6---
2024-02-23 01:00 amSSW 11.7 15.5----29.98-0.09 41.2 40.5 40.5---
2024-02-23 12:50 am S 9.7 15.5 15.7 139.4 W29.99- 40.5 40.5 39.7---
2024-02-23 12:40 amSSE 7.8 11.7----29.99- 39.7 40.5 38.8---
2024-02-23 12:30 amSSE 7.8 11.7----30.00- 39.4 40.5 38.3---
2024-02-23 12:20 amSSE 7.8 11.7 15.4 139.0 W30.01- 39.4 40.3 38.1---
2024-02-23 12:10 amSSE 7.8 11.7 15.4-9.0 W30.01- 39.4 40.3 37.9---
2024-02-23 12:00 am S 5.8 9.7----30.01-0.07 39.0 40.3 37.2---
2024-02-22 11:50 pm S 5.8 9.7 15.7 149.2 W30.02- 38.8 40.3 36.9---
2024-02-22 11:40 pm S 7.8 11.7 15.7-9.2 W30.02- 38.7 40.3 36.3---
2024-02-22 11:30 pmSSW 9.7 11.7----30.03- 38.5 40.3 36.0---
2024-02-22 11:20 pmSSW 11.7 13.6 14.8 158.9 W30.03- 38.5 40.3 36.0---
2024-02-22 11:10 pmSSW 11.7 15.5 14.8-8.9 W30.03- 38.5 40.3 36.1---
2024-02-22 11:00 pmSSW 13.6 15.5----30.04-0.06 38.5 40.3 36.0---
2024-02-22 10:50 pmSSW 13.6 19.4 14.8 118.4 W30.04- 38.3 40.3 35.8---
2024-02-22 10:40 pmSSW 15.5 19.4 14.8-8.4 W30.05- 38.3 40.3 35.8---
2024-02-22 10:30 pmSSW 15.5 19.4----30.06- 38.3 40.3 35.8---
2024-02-22 10:20 pmSSW 15.5 21.4 15.7 148.8 W30.06- 38.3 40.3 35.8---
2024-02-22 10:10 pmSSW 15.5 19.4 15.7-8.8 W30.06- 38.5 40.3 36.0---
2024-02-22 10:00 pmSSW 15.5 19.4----30.07-0.04 38.5 40.3 36.1---
2024-02-22 09:50 pmSSW 15.5 19.4 16.4 148.6 W30.07- 38.3 40.3 36.0---
2024-02-22 09:40 pm SW 15.5 21.4 16.4-8.6 W30.08- 38.1 40.3 35.8---
2024-02-22 09:30 pmSSW 15.5 21.4----30.08- 38.1 40.3 35.8---
2024-02-22 09:20 pmSSW 17.5 21.4 16.7 148.9 W30.09- 37.9 40.3 35.6---
2024-02-22 09:10 pmSSW 17.5 23.3----30.09- 37.8 40.3 35.4---
2024-02-22 09:00 pmSSW 19.4 23.3----30.10-0.01 37.6 40.3 35.1---
2024-02-22 08:50 pmSSW 19.4 23.3 15.7 158.4WSW30.10- 37.8 40.3 35.2---
2024-02-22 08:40 pmSSW 21.4 27.2 15.7-8.4WSW30.11- 37.6 40.3 34.9---
2024-02-22 08:30 pmSSW 19.4 25.3----30.10- 38.1 40.3 35.6---
2024-02-22 08:20 pmSSW 19.4 25.3 16.1 128.4 W30.11- 38.1 40.3 35.6---
2024-02-22 08:10 pmSSW 19.4 25.3 16.1-8.4 W30.11- 38.3 40.3 35.8---
2024-02-22 08:00 pmSSW 19.4 25.3----30.11+0.00 38.3 40.3 36.0---
2024-02-22 07:50 pmSSW 21.4 25.3 15.4 118.6 W30.11- 38.5 40.3 36.0---
2024-02-22 07:40 pmSSW 19.4 25.3----30.11- 38.7 40.3 36.1---
2024-02-22 07:30 pmSSW 19.4 25.3----30.11- 38.7 40.3 36.1---
2024-02-22 07:20 pmSSW 19.4 25.3 16.1 158.5 W30.11- 38.8 40.3 36.3---
2024-02-22 07:10 pm SW 19.4 27.2 16.1-8.5 W30.11- 38.8 40.3 36.1---
2024-02-22 07:00 pmSSW 19.4 25.3----30.11+0.02 38.7 40.3 36.1---
2024-02-22 06:50 pmSSW 19.4 25.3 15.1 128.3 W30.11- 38.5 40.3 35.8---
2024-02-22 06:40 pm SW 17.5 23.3 15.1-8.3 W30.11- 38.7 40.3 36.0---
2024-02-22 06:30 pm SW 17.5 23.3----30.11- 38.7 40.3 36.0---
2024-02-22 06:20 pm SW 19.4 25.3 15.4 148.3 W30.11- 38.7 40.3 35.8---
2024-02-22 06:10 pm SW 19.4 25.3 15.4-8.3 W30.11- 38.5 40.3 35.4---
2024-02-22 06:00 pm SW 21.4 25.3----30.11+0.02 38.7 40.3 35.6---
2024-02-22 05:50 pm SW 21.4 27.2 15.4 158.9 W30.11- 38.8 40.3 35.6---
2024-02-22 05:40 pm SW 19.4 27.2----30.11- 39.2 40.3 35.8---
2024-02-22 05:30 pm SW 19.4 25.3----30.11- 39.4 40.3 35.8---
2024-02-22 05:20 pm SW 19.4 27.2 14.8 118.3 W30.10- 39.4 40.3 35.6---
2024-02-22 05:10 pmWSW 21.4 27.2 14.8-8.3 W30.10- 39.6 40.3 35.6---
2024-02-22 05:00 pmWSW 17.5 25.3----30.10+0.02 39.9 40.3 36.0---
2024-02-22 04:50 pmWSW 19.4 25.3 15.4 148.5 W30.10- 39.7 40.3 35.6---
2024-02-22 04:40 pmWSW 19.4 25.3----30.10- 39.9 40.3 35.6---
2024-02-22 04:30 pmWSW 21.4 29.1----30.10- 40.3 40.3 35.2---
2024-02-22 04:20 pm SW 21.4 27.2 16.1 158.7 W30.09- 40.6 40.3 35.2---
2024-02-22 04:10 pm SW 21.4 29.1 16.1-8.7 W30.09- 40.8 40.3 36.0---
2024-02-22 04:00 pm SW 21.4 27.2----30.09+0.02 40.8 40.3 36.0---
2024-02-22 03:50 pm SW 21.4 27.2 14.1 118.2 W30.09- 40.8 40.3 36.1---
2024-02-22 03:40 pm SW 21.4 27.2 14.1-8.2 W30.09- 40.8 40.3 36.3---
2024-02-22 03:30 pm SW 21.4 29.1----30.09- 40.8 40.3 36.3---
2024-02-22 03:20 pm SW 21.4 27.2 13.1 148.0 W30.09- 40.6 40.3 36.1---
2024-02-22 03:10 pm SW 21.4 27.2 13.1-8.0 W30.09- 40.6 40.3 36.0---
2024-02-22 03:00 pm SW 21.4 27.2----30.09+0.01 40.6 40.3 35.8---
2024-02-22 02:50 pm SW 21.4 25.3 13.8 118.1WSW30.09- 40.6 40.3 35.4---

Detailed Wave Summary
for 46066 as of
(3:10 pm HAST on 02/23/2024)
0110 GMT on 02/24/2024:

These wave data are displayed in rounded times.

     

Click on the graph icon in the table below to see a time series plot of the last five days of that observation.

5-day plot - Significant Wave Height Significant Wave Height (WVHT): 15.1 ft
5-day plot - Swell Height Swell Height (SwH): 11.5 ft
5-day plot - Swell Period Swell Period (SwP): 12.1 sec
5-day plot - Swell Direction Swell Direction (SwD): W
5-day plot - Wind Wave Height Wind Wave Height (WWH): 10.2 ft
5-day plot - Wind Wave Period Wind Wave Period (WWP): 9.1 sec
5-day plot - Wind Wave Direction Wind Wave Direction (WWD):WSW
5-day plot - Wave Steepness Wave Steepness (STEEPNESS): AVERAGE
5-day plot - Average Wave Period Average Wave Period (APD): 8.1 sec
Previous observations
TIME
(HAST)
5-day plot - Wave Height
WVHT
ft
5-day plot - Swell Height
SwH
ft
5-day plot - Swell Period
SwP
sec
5-day plot - Swell Direction
SwD
 
5-day plot - Wind Wave Height
WWH
ft
5-day plot - Wind Wave Period
WWP
sec
5-day plot - Wind Wave Direction
WWD
 
5-day plot - Wave Steepness
STEEPNESS
 
5-day plot - Average Wave Period
APD
sec
2024-02-23 02:40 pm 15.4 9.5 10.8WSW 11.8 6.7 SW AVERAGE 8.0
2024-02-23 02:10 pm 14.8 11.5 13.8 W 9.5 7.7 SW SWELL 7.7
2024-02-23 01:40 pm 16.4 12.1 10.8 W 11.2 9.1 WSW AVERAGE 8.1
2024-02-23 01:10 pm 14.8 12.1 14.8 W 8.5 7.7 SW SWELL 8.0
2024-02-23 12:40 pm 15.1 12.1 12.9WSW 8.9 6.7 WSW SWELL 7.9
2024-02-23 12:10 pm 15.4 11.8 10.0WSW 10.2 7.1 WSW STEEP 8.0
2024-02-23 11:40 am 15.7 11.8 10.0WSW 10.5 8.3 WSW STEEP 7.9
2024-02-23 11:10 am 16.4 13.5 10.8WSW 9.2 6.7 WSW AVERAGE 8.2
2024-02-23 10:40 am 16.4 11.2 13.8 W 12.1 10.0 WSW AVERAGE 8.2
2024-02-23 10:10 am 16.1 13.5 14.8 W 8.9 5.3 SW SWELL 8.4
2024-02-23 09:40 am 15.7 14.1 10.8 W 7.5 7.7 WSW AVERAGE 8.5
2024-02-23 09:10 am 16.1 13.8 16.0 W 8.5 7.7 WSW SWELL 8.5
2024-02-23 08:40 am 15.7 12.5 17.4 W 9.2 8.3 WSW SWELL 8.2
2024-02-23 08:10 am 15.7 13.5 17.4 W 8.5 7.7 SW SWELL 8.7
2024-02-23 07:40 am 14.4 11.8 17.4 W 8.5 7.7 WSW SWELL 8.2
2024-02-23 07:10 am 14.4 11.8 14.8 W 8.2 5.6 WSW SWELL 8.3
2024-02-23 06:40 am 14.1 10.5 17.4 W 9.5 7.1 SW SWELL 7.9
2024-02-23 06:10 am 15.7 13.5 19.0 W 7.9 6.7 SW SWELL 8.8
2024-02-23 05:40 am 14.8 12.5 19.0 W 8.2 7.7 WSW SWELL 8.6
2024-02-23 05:10 am 14.1 10.8 14.8 W 8.9 7.7 WSW SWELL 8.2
2024-02-23 04:40 am 14.4 11.2 13.8 W 8.9 9.1 WSW SWELL 8.4
2024-02-23 04:10 am 14.1 11.8 17.4 W 7.5 7.1 WSW SWELL 8.4
2024-02-23 03:40 am 12.8 10.8 11.4 W 7.2 6.7 WSW AVERAGE 8.2
2024-02-23 03:10 am 13.1 11.5 16.0 W 6.9 5.9 SW SWELL 8.5
2024-02-23 02:40 am 13.5 11.5 11.4 W 6.9 7.1 WSW AVERAGE 8.6
2024-02-23 02:10 am 13.8 12.1 10.8 W 6.9 7.7 WSW AVERAGE 8.9
2024-02-23 01:40 am 13.5 12.1 12.1 W 5.9 4.3 SW AVERAGE 9.0
2024-02-23 01:10 am 13.8 13.1 12.9 W 4.3 5.6 SW SWELL 9.0
2024-02-23 12:40 am 15.7 15.7 12.9 W 1.6 3.8 SW AVERAGE 9.4
2024-02-23 12:10 am 15.4 15.1 12.9 W 2.3 4.0 SW AVERAGE 9.0
2024-02-22 11:40 pm 15.7 15.7 13.8 W 2.3 3.4 SW SWELL 9.2
2024-02-22 11:10 pm 14.8 14.1 14.8 W 3.9 5.0 WSW SWELL 8.9
2024-02-22 10:40 pm 14.8 12.8 10.8 W 7.2 5.0 WSW AVERAGE 8.4
2024-02-22 10:10 pm 15.7 14.1 13.8 W 6.2 6.7 WSW SWELL 8.8
2024-02-22 09:40 pm 16.4 14.4 13.8 W 7.5 5.6 SW SWELL 8.6
2024-02-22 09:10 pm 16.7 14.8 13.8 W 7.9 7.7 WSW SWELL 8.9
2024-02-22 08:40 pm 15.7 13.1 14.8WSW 8.5 7.7 W SWELL 8.4
2024-02-22 08:10 pm 16.1 13.5 12.1 W 8.9 7.7 WSW AVERAGE 8.4
2024-02-22 07:40 pm 15.4 13.1 11.4 W 8.2 8.3 W AVERAGE 8.6
2024-02-22 07:10 pm 16.1 12.8 14.8 W 9.8 9.1 W SWELL 8.5
2024-02-22 06:40 pm 15.1 12.1 12.1 W 8.9 8.3 W AVERAGE 8.3
2024-02-22 06:10 pm 15.4 12.5 13.8 W 9.2 7.1 WSW SWELL 8.3
2024-02-22 05:40 pm 15.4 13.5 14.8 W 7.5 7.1 WSW SWELL 8.9
2024-02-22 05:10 pm 14.8 11.5 11.4 W 9.2 9.1 WSW AVERAGE 8.3
2024-02-22 04:40 pm 15.4 12.8 13.8 W 8.2 7.7 WSW SWELL 8.5
2024-02-22 04:10 pm 16.1 13.5 14.8 W 8.5 8.3 WSW SWELL 8.7
2024-02-22 03:40 pm 14.1 11.5 11.4 W 7.9 8.3 WSW AVERAGE 8.2
2024-02-22 03:10 pm 13.1 10.8 13.8 W 7.5 7.7 WSW SWELL 8.0

Plot of wave energy versus frequency (and period)